KCVG

Cincinnati North Kentucky

Airport
ICAO code
KCVG
Summary
ICAO Region
NAM
ICAO Territory
Location

Cincinnati, Kentucky,

Elevation
896 ft
Coordinates
39° 6' 12" N , 84° 25' 8" W
KCC
Airport BS
Bird Strike
Metar
Observation
KCVG 090206Z 09006KT 5SM -RA BR SCT028 BKN038 OVC075 09/09 A3009 RMK AO2 P0000 T00940094
Station
Covington / Cincinnati, Cincinnati / Northern Kentucky International Airport
Date/Time
2023-02-09 03:06:00
Wind direction
90°
Wind speed
06 kts
Lowest cloud amount
scattered clouds
Temperature
9.4°C
Dew point
9.4°C
Humidity
100%
Weather condition
light

Description

Airport serving Cincinnati, Kentucky,USA.

Climatology

Humid “subtropical” climate (Köppen climate classification Cfa) - characterized by hot, humid summers and cool winters. Significant amounts of precipitation occur in all seasons in most areas. Winter rainfall (and sometimes snowfall) is associated with large storms that the westerlies steer from west to east. Most summer rainfall occurs during thunderstorms.

Airport map

Aerial View

SKYbrary Partners:

Safety knowledge contributed by: